123  
ASUS41 KPHI 171013  
RWRPHI  
 
REGIONAL WEATHER ROUNDUP  
NATIONAL WEATHER SERVICE MOUNT HOLLY NJ  
600 AM EDT WED OCT 17 2018  
 
NOTE: "FAIR" INDICATES FEW OR NO CLOUDS BELOW 12,000 FEET WITH NO  
SIGNIFICANT WEATHER AND/OR S TO VISIBILITY
.  
 
* = STATION DOES NOT REPORT PRECIPITATION (E.G. RAIN, SNOW, ETC.)  
OR FOG.
 
 
NJZ015>026-171100-  
SOUTHERN NEW JERSEY  
 
CITY SKY/WX TMP DP RH WIND PRES REMARKS
 
POMONA CLOUDY 55 50 83 W3 30.04S  
WILDWOOD* CLOUDY 59 50 72 W8 30.06R  
MILLVILLE MOCLDY 51 50 96 W3 30.05R  
WRIGHTSTOWN CLEAR 45 42 89 CALM 30.02R  
TRENTON FAIR 45 40 82 SW5 30.03S  
 

 
NJZ001>014-171100-  
NORTHERN NEW JERSEY  
 
CITY SKY/WX TMP DP RH WIND PRES REMARKS
 
SUSSEX FAIR 35 34 96 CALM 29.98F  
ANDOVER* N/A 37 36 96 CALM 30.00S  
MORRISTOWN FAIR 36 36 100 CALM 30.01R  
NEWARK FAIR 43 40 89 SW7 30.02S  
TETERBORO FAIR 43 39 86 SW8 30.00S  
CALDWELL FAIR 41 39 93 CALM 30.01S  
SOMERVILLE FAIR N/A N/A N/A CALM 30.01S  
ALLAIRE* FAIR 45 42 89 SW6 30.04S  
TOMS RIVER* FAIR 40 39 97 CALM 30.05R  
 

 
PAZ043-044-047-054-055-060>062-066>071-171100-  
EASTERN PENNSYLVANIA  
 
CITY SKY/WX TMP DP RH WIND PRES REMARKS
 
PHILADELPHIA MOCLDY 50 42 74 NW7 30.05S  
NORTH PHILA FAIR 47 42 83 W5 30.06R  
BLUE BELL* FAIR 39 39 100 CALM 30.05S  
DOYLESTOWN FAIR 42 39 89 VRB3 30.03R  
QUAKERTOWN* CLEAR 36 37 100 CALM 30.03S  
PERKASIE* FAIR 41 41 100 SW3 30.04R  
POTTSTOWN FAIR 38 38 100 CALM 30.05F  
LANCASTER FAIR 42 41 96 W3 30.05S  
COATESVILLE FAIR 45 41 87 W5 30.06R  
READING FAIR 40 40 100 CALM 30.03S  
ALLENTOWN FAIR 41 36 82 SW6 30.02S  
MOUNT POCONO FAIR 37 33 85 W12 29.96S WCI 29  
HAZLETON FAIR 39 34 81 W3 30.02R  
LEHIGHTON FOG 32 32 100 CALM 30.03S VSB 1/4  
WILKES BARRE FAIR 40 35 83 SW6 29.99R  
 

 
DEZALL-MDZ008-012-015-019-020-171100-  
DELAWARE AND EASTERN MARYLAND  
 
CITY SKY/WX TMP DP RH WIND PRES REMARKS
 
WILMINGTON FAIR 48 44 86 W7 30.06R  
DOVER CLOUDY 54 50 87 CALM 30.05R  
GEORGETOWN CLOUDY 56 53 90 SW3 30.06S  
EASTON CLOUDY 59 54 82 W3 30.10R  
ABERDEEN MOCLDY 46 46 100 CALM 30.07  
PATUXENT CLOUDY 55 55 100 NW5 30.07  
OCEAN CITY LGT RAIN 54 52 93 NW3 30.06R FOG  
WALLOPS ISLAND LGT RAIN 58 55 90 CALM 30.05S FOG  
CAMBRIDGE CLOUDY 55 55 100 CALM 30.07R  
SALISBURY LGT RAIN 54 54 100 CALM 30.05S  
 

 
PAZ001-021-NYZ056-072-MDZ011-DCZ001-171100-  
OTHER NEARBY LOCATIONS  
 
CITY SKY/WX TMP DP RH WIND PRES REMARKS
 
HARRISBURG FAIR 42 38 85 CALM 30.05S  
STATE COLLEGE CLEAR 39 36 87 S6 30.01S WCI 35  
WILLIAMSPORT CLOUDY 35 34 96 N3 30.00F  
BINGHAMTON CLOUDY 40 32 73 SW7 29.90F  
NEW YORK CITY FAIR 48 38 68 MISG 30.03S  
BALTIMORE MOCLDY 50 47 89 W6 30.07R  
WASHINGTON DC MOCLDY 54 48 80 N6 30.09R  
 

 
 
 
CLICK HERE TO GO TO PREVIOUS BULLETINS.

The Nexlab PA Page
The Nexlab NJ Page
The Nexlab DE Page
The Nexlab MD Page Main Text Page